FW4778 Weather Reports


Display with metric or nautical units.
time (UTC)temp
F
wind
direction
speed
MPH
gust
MPH
rain 1hr
in
rain 24hr
in
rain mn
in
humidity
%
barometer
mb
20260510074249 59 9 7.0 12.0 0.00 0.00 0.00 74 1014.9
20260510073228 58 31 5.0 12.0 0.00 0.00 0.00 76 1015.0
20260510072248 58 346 7.0 11.0 0.00 0.00 0.00 77 1015.1
20260510071230 57 40 4.0 13.0 0.00 0.00 0.00 79 1015.1
20260510070236 56 25 7.0 14.0 0.00 0.00 0.00 80 1015.1
20260510065231 56 24 4.0 11.0 0.00 0.00 0.00 82 1015.1
20260510064232 55 12 7.0 14.0 0.00 0.00 0.00 83 1015.2
20260510063241 55 355 5.0 10.0 0.00 0.00 0.00 86 1015.1
20260510062324 54 22 3.0 12.0 0.00 0.00 0.00 87 1015.2
20260510061245 53 39 5.0 11.0 0.00 0.00 0.00 88 1015.3
20260510060242 53 13 4.0 12.0 0.00 0.00 0.00 89 1015.2
20260510055306 53 70 5.0 11.0 0.00 0.00 0.00 90 1015.1
20260510054239 52 30 7.0 11.0 0.00 0.00 0.00 90 1015.2
20260510053307 52 46 5.0 13.0 0.00 0.00 0.00 90 1015.2
20260510052258 52 9 6.0 9.0 0.00 0.00 0.00 90 1015.1
20260510051248 52 11 4.0 8.0 0.00 0.00 0.00 90 1015.1
20260510050244 52 11 6.0 10.0 0.00 0.00 0.00 90 1015.2
20260510045243 52 5 6.0 8.0 0.00 0.00 0.00 90 1015.2
20260510044253 52 27 6.0 9.0 0.00 0.00 0.00 90 1015.1
20260510043231 52 36 5.0 9.0 0.00 0.00 0.00 90 1015.1
20260510042242 52 360 3.0 9.0 0.00 0.00 0.00 89 1015.1
20260510041233 52 9 5.0 10.0 0.00 0.00 0.00 89 1015.1
20260510040232 52 42 4.0 8.0 0.00 0.00 0.00 88 1015.1
20260510035259 52 34 5.0 9.0 0.00 0.00 0.00 89 1015.1
20260510034259 52 11 6.0 10.0 0.00 0.00 0.00 88 1015.1
20260510033247 52 5 5.0 9.0 0.00 0.00 0.00 88 1015.1
20260510032256 52 43 5.0 8.0 0.00 0.00 0.00 87 1015.2
20260510031247 52 12 3.0 6.0 0.00 0.00 0.00 87 1015.3
20260510030225 52 12 3.0 6.0 0.00 0.00 0.00 86 1015.4
20260510025224 52 13 3.0 9.0 0.00 0.00 0.00 86 1015.4
20260510024226 52 349 3.0 6.0 0.00 0.00 0.00 85 1015.3
20260510023226 52 5 3.0 8.0 0.00 0.00 0.00 85 1015.3
20260510022244 52 33 4.0 8.0 0.00 0.00 0.00 85 1015.3
20260510021228 52 38 3.0 4.0 0.00 0.00 0.00 84 1015.4
20260510020228 51 36 3.0 6.0 0.00 0.00 0.00 84 1015.5
20260510015234 52 27 3.0 4.0 0.00 0.00 0.00 82 1015.5
20260510014235 52 43 2.0 4.0 0.00 0.00 0.00 81 1015.6
20260510013228 52 28 1.0 4.0 0.00 0.00 0.00 80 1015.6
20260510012249 53 40 3.0 5.0 0.00 0.00 0.00 80 1015.7
20260510011232 53 15 2.0 4.0 0.00 0.00 0.00 79 1015.6
20260510010243 53 43 4.0 6.0 0.00 0.00 0.00 79 1015.6
20260510005241 53 11 4.0 8.0 0.00 0.00 0.00 78 1015.7
20260510004310 54 34 4.0 6.0 0.00 0.00 0.00 77 1015.8
20260510003250 54 21 3.0 8.0 0.00 0.00 0.00 77 1015.8
20260510002246 54 37 3.0 6.0 0.00 0.00 0.00 77 1015.7
20260510001227 54 44 3.0 5.0 0.00 0.00 0.00 76 1015.9
20260510000251 54 29 3.0 4.0 0.00 0.00 0.00 76 1016.2
20260509235229 54 5 3.0 5.0 0.00 0.00 0.00 76 1016.0
20260509234228 54 28 3.0 5.0 0.00 0.00 0.00 75 1016.2
20260509233238 54 44 3.0 5.0 0.00 0.00 0.00 74 1016.1
20260509232248 54 42 3.0 4.0 0.00 0.00 0.00 74 1016.2
20260509231232 55 11 2.0 5.0 0.00 0.00 0.00 73 1016.3
20260509230242 55 17 3.0 5.0 0.00 0.00 0.00 73 1016.3
20260509225243 55 28 2.0 4.0 0.00 0.00 0.00 72 1016.2
20260509224244 56 28 3.0 7.0 0.00 0.00 0.00 72 1016.2
20260509223247 56 28 4.0 6.0 0.00 0.00 0.00 72 1016.2
20260509222256 56 30 3.0 6.0 0.00 0.00 0.00 72 1016.1
20260509221229 56 20 3.0 5.0 0.00 0.00 0.00 71 1016.3
20260509220238 57 48 2.0 6.0 0.00 0.00 0.00 71 1016.3
20260509215236 57 52 2.0 6.0 0.00 0.00 0.00 70 1016.3
20260509214246 57 31 3.0 5.0 0.00 0.00 0.00 70 1016.4
20260509213247 58 42 3.0 6.0 0.00 0.00 0.00 69 1016.2
20260509212330 58 12 4.0 6.0 0.00 0.00 0.00 68 1016.2
20260509211233 59 42 3.0 9.0 0.00 0.00 0.00 68 1016.3
20260509210254 59 30 3.0 7.0 0.00 0.00 0.00 67 1016.0
20260509205306 60 27 4.0 8.0 0.00 0.00 0.00 66 1016.0
20260509204232 60 47 4.0 8.0 0.00 0.00 0.00 65 1016.1
20260509203257 60 59 3.0 8.0 0.00 0.00 0.00 65 1016.0
20260509202248 60 5 4.0 8.0 0.00 0.00 0.00 65 1015.9
20260509201241 61 19 3.0 6.0 0.00 0.00 0.00 64 1016.1
20260509200238 61 42 4.0 8.0 0.00 0.00 0.00 63 1016.0
20260509195236 62 34 3.0 10.0 0.00 0.00 0.00 63 1016.0
20260509194243 62 22 4.0 9.0 0.00 0.00 0.00 63 1015.7
20260509193243 63 23 5.0 9.0 0.00 0.00 0.00 62 1015.6
20260509192305 63 27 3.0 6.0 0.00 0.00 0.00 61 1015.7
20260509191244 64 355 3.0 5.0 0.00 0.00 0.00 60 1015.6
20260509190246 65 340 1.0 4.0 0.00 0.00 0.00 59 1015.7
20260509185253 65 5 3.0 9.0 0.00 0.00 0.00 57 1015.7
20260509184254 66 338 3.0 6.0 0.00 0.00 0.00 57 1015.7
20260509183300 67 346 2.0 5.0 0.00 0.00 0.00 55 1015.6
20260509182252 68 42 1.0 3.0 0.00 0.00 0.00 54 1015.5
20260509181234 69 28 2.0 6.0 0.00 0.00 0.00 52 1015.7
20260509180243 69 36 3.0 6.0 0.00 0.00 0.00 51 1015.7
20260509175306 70 20 4.0 6.0 0.00 0.00 0.00 50 1015.5
20260509174251 70 36 1.0 4.0 0.00 0.00 0.00 51 1015.4
20260509173226 70 26 4.0 6.0 0.00 0.00 0.00 49 1015.3
20260509172249 71 43 2.0 5.0 0.00 0.00 0.00 51 1015.3
20260509171233 71 5 3.0 9.0 0.00 0.00 0.00 50 1015.3
20260509170234 72 9 2.0 6.0 0.00 0.00 0.00 47 1015.3
20260509165243 72 313 2.0 6.0 0.00 0.00 0.00 46 1015.4
20260509164259 72 355 0.0 2.0 0.00 0.00 0.00 47 1015.5
20260509163236 72 85 1.0 6.0 0.00 0.00 0.00 47 1015.6
20260509162256 72 360 3.0 6.0 0.00 0.00 0.00 48 1015.6
20260509161235 72 79 1.0 3.0 0.00 0.00 0.00 48 1015.6
20260509160247 72 30 1.0 4.0 0.00 0.00 0.00 48 1015.6
20260509155243 71 35 3.0 6.0 0.00 0.00 0.00 51 1015.6
20260509154243 72 44 2.0 7.0 0.00 0.00 0.00 49 1015.6
20260509153246 73 98 2.0 4.0 0.00 0.00 0.00 47 1015.7
20260509152326 73 87 3.0 15.0 0.00 0.00 0.00 53 1015.6
20260509151243 72 172 1.0 5.0 0.00 0.00 0.00 46 1015.8
20260509150245 72 312 3.0 5.0 0.00 0.00 0.00 47 1015.8
20260509145226 72 346 2.0 5.0 0.00 0.00 0.00 47 1015.8
20260509144314 71 53 1.0 3.0 0.00 0.00 0.00 50 1015.9
20260509143226 71 63 4.0 7.0 0.00 0.00 0.00 50 1016.0
20260509142248 73 67 1.0 8.0 0.00 0.00 0.00 49 1016.1
20260509141232 72 45 2.0 7.0 0.00 0.00 0.00 51 1016.2
20260509140230 73 355 2.0 8.0 0.00 0.00 0.00 50 1016.1
20260509135259 72 63 2.0 11.0 0.00 0.00 0.00 50 1016.1
20260509134237 72 360 3.0 9.0 0.00 0.00 0.00 52 1016.1
20260509133247 72 98 1.0 6.0 0.00 0.00 0.00 51 1016.3
20260509132301 72 34 2.0 6.0 0.00 0.00 0.00 51 1016.5
20260509131244 71 349 1.0 4.0 0.00 0.00 0.00 51 1016.7
20260509130252 71 94 2.0 9.0 0.00 0.00 0.00 51 1016.8
20260509125226 71 43 2.0 6.0 0.00 0.00 0.00 51 1017.0
20260509124228 71 121 2.0 5.0 0.00 0.00 0.00 54 1016.9
20260509123238 71 80 1.0 6.0 0.00 0.00 0.00 53 1016.9
20260509122251 71 130 2.0 4.0 0.00 0.00 0.00 54 1017.0
20260509121241 70 17 6.0 12.0 0.00 0.00 0.00 55 1017.2
20260509120241 71 90 1.0 7.0 0.00 0.00 0.00 55 1017.2
20260509115308 69 65 2.0 5.0 0.00 0.00 0.00 56 1017.3
20260509114227 68 59 2.0 5.0 0.00 0.00 0.00 58 1017.5
20260509113314 69 84 2.0 10.0 0.00 0.00 0.00 54 1017.6
20260509112302 69 38 4.0 9.0 0.00 0.00 0.00 52 1017.6
20260509111225 70 74 2.0 6.0 0.00 0.00 0.00 56 1017.7
20260509110248 70 106 1.0 8.0 0.00 0.00 0.00 55 1017.7
20260509105230 70 89 3.0 5.0 0.00 0.00 0.00 55 1017.8
20260509104319 69 105 2.0 8.0 0.00 0.00 0.00 52 1017.9
20260509103233 69 38 1.0 11.0 0.00 0.00 0.00 57 1017.9
20260509102310 69 33 4.0 9.0 0.00 0.00 0.00 53 1018.0
20260509101308 69 79 4.0 9.0 0.00 0.00 0.00 56 1018.0
20260509100252 69 78 4.0 11.0 0.00 0.00 0.00 55 1018.0
20260509095229 69 78 2.0 11.0 0.00 0.00 0.00 55 1018.0
20260509094226 68 94 2.0 4.0 0.00 0.00 0.00 56 1018.0
20260509093227 68 97 2.0 7.0 0.00 0.00 0.00 56 1018.1
20260509092306 68 20 2.0 5.0 0.00 0.00 0.00 58 1018.2
20260509091250 68 96 2.0 6.0 0.00 0.00 0.00 63 1018.3
20260509090243 67 123 2.0 6.0 0.00 0.00 0.00 63 1018.3
20260509085230 66 82 3.0 4.0 0.00 0.00 0.00 61 1018.3
20260509084230 65 95 2.0 5.0 0.00 0.00 0.00 64 1018.3
20260509083229 65 85 2.0 6.0 0.00 0.00 0.00 66 1018.4
20260509082247 64 106 1.0 4.0 0.00 0.00 0.00 69 1018.6
20260509081227 63 78 1.0 4.0 0.00 0.00 0.00 71 1018.5
20260509080252 62 87 1.0 3.0 0.00 0.00 0.00 72 1018.6
20260509075240 62 112 2.0 6.0 0.00 0.00 0.00 72 1018.7